Location: Unspecified
(35.7250°N, 0.0000°E)
Time: 18:57:34
(UTC+00:00)

Vanguard 1 - Pass Details

Date: 02 July 2019
Orbit: 653 x 3830 km, 34.3° (Epoch: 20 July)

Event Time Altitude Azimuth Distance (km) Brightness Sun altitude
Rises 21:33:48 0° 215° (SW) 7,098 14.3 -21.3°
Reaches altitude 10° 21:38:29 10° 209° (SSW) 6,382 13.9 -21.9°
Maximum altitude 21:58:58 47° 143° (SE) 4,574 12.9 -24.2°
Drops below altitude 10° 22:18:34 10° 79° (E) 6,190 14.0 -26.2°
Sets 22:22:56 0° 74° (ENE) 6,887 14.3 -26.6°
